This is the latest recevied weather packets stored in our database for station/object KC3WWU. If no packets are shown the sender has not sent any weather packets the latest 1 day(s).
| Time | Temp. | Humidity | Pressure | Rain* | Wind** | Luminosity | Snow |
|---|---|---|---|---|---|---|---|
| 1778078451 | 13.33° C | 99% | 1004.7 hPa | 0 mm | - | 45 W/m² | - |
| 1778078149 | 13.33° C | 99% | 1004.9 hPa | 0 mm | - | 55 W/m² | - |
| 1778077847 | 13.33° C | 99% | 1004.7 hPa | 0 mm | - | 39 W/m² | - |
| 1778076638 | 12.78° C | 99% | 1004.5 hPa | 0 mm | - | 20 W/m² | - |
| 1778074818 | 12.78° C | 99% | 1004.3 hPa | 0 mm | - | 35 W/m² | - |
| 1778074212 | 12.78° C | 99% | 1004.4 hPa | 0 mm | - | 43 W/m² | - |
| 1778072691 | 12.22° C | 99% | 1004.8 hPa | 1.27 mm | - | 59 W/m² | - |
| 1778072389 | 12.22° C | 99% | 1004.5 hPa | 1.27 mm | - | 40 W/m² | - |
| 1778072087 | 12.22° C | 99% | 1004.8 hPa | 1.27 mm | - | 59 W/m² | - |
| 1778071482 | 12.22° C | 99% | 1004.8 hPa | 0 mm | - | 40 W/m² | - |
| 1778071180 | 12.22° C | 99% | 1004.8 hPa | 0 mm | - | 34 W/m² | - |
| 1778070575 | 12.22° C | 99% | 1004.7 hPa | 0 mm | - | 27 W/m² | - |
| 1778068758 | 12.22° C | 99% | 1004.8 hPa | 0 mm | - | 46 W/m² | - |
| 1778068456 | 12.22° C | 99% | 1004.5 hPa | 0 mm | - | 99 W/m² | - |
| 1778065431 | 11.67° C | 99% | 1005 hPa | 1.27 mm | - | 8 W/m² | - |
| 1778064824 | 11.67° C | 99% | 1004.9 hPa | 1.78 mm | - | 4 W/m² | - |
| 1778064219 | 11.67° C | 99% | 1004.8 hPa | 0 mm | - | 4 W/m² | - |
| 1778062401 | 11.67° C | 99% | 1005.1 hPa | 1.27 mm | - | 1 W/m² | - |
| 1778061798 | 11.67° C | 99% | 1005 hPa | 0 mm | - | 0 W/m² | - |
| 1778061496 | 11.67° C | 99% | 1005 hPa | 0 mm | - | 0 W/m² | - |
| 1778060889 | 11.67° C | 99% | 1005.1 hPa | 1.78 mm | - | 0 W/m² | - |
| 1778060588 | 11.67° C | 99% | 1005.1 hPa | 0 mm | - | 0 W/m² | - |
| 1778059681 | 11.67° C | 99% | 1005 hPa | 0 mm | - | 0 W/m² | - |
| 1778058772 | 11.67° C | 99% | 1005.3 hPa | 0 mm | - | 0 W/m² | - |
| 1778058470 | 11.67° C | 99% | 1005.2 hPa | 0 mm | - | 0 W/m² | - |
* Rain latest hour (hover to see other rain measurements)
** Current wind speed in m/s (hover to see current wind gust speed)